Probability
0 0 0 0 0 0 0 0 0 0 0 0 0 0 0 0 0 0 0 0 3 3 3 3 3 3 3 0 0 3 6 10 6 0 0 0 3 0 0 0 0 0 0 0
0 0 0 0 0 0 0 0 0 0 0 0 0 0 0 0 0 0 0 0 0 0 0 3 3 0 3 0 0 0 0 0 3 3 3 0 3 3 0 0 0 0 0 0
0 0 0 0 0 0 0 0 0 0 0 0 0 0 0 0 0 0 0 0 0 0 0 0 0 0 3 3 0 3 3 0 0 0 3 0 0 0 0 0 0 0 0 0
0 0 0 0 0 0 0 0 0 0 0 0 0 0 0 0 0 0 0 0 0 0 0 0 0 0 3 3 0 0 0 0 0 0 0 0 3 0 0 0 0 0 0 0
0 0 0 0 0 0 0 0 0 0 0 0 0 0 0 0 0 0 0 0 0 0 0 0 0 0 0 3 3 0 0 0 0 0 0 0 0 0 0 0 0 0 0 0
0 0 0 0 0 0 0 0 0 0 0 0 0 0 0 0 0 0 0 0 0 0 0 0 0 0 0 0 0 0 0 0 0 0 0 0 0 0 0 0 0 0 0 0
0 0 0 0 0 0 0 0 0 0 0 0 0 0 0 0 0 0 0 0 0 0 0 0 0 0 0 0 0 0 0 0 0 0 0 0 0 0 0 0 0 0 0 0
0 0 0 0 0 0 0 0 0 0 0 0 0 0 0 0 0 0 0 0 0 0 0 0 0 0 0 0 0 0 0 0 3 3 0 0 0 0 0 0 0 0 0 0
0 0 0 0 0 0 0 0 0 0 0 0 0 0 0 0 0 0 0 0 0 0 0 0 0 0 0 0 0 0 0 0 0 0 0 0 0 0 0 0 3 0 0 0
0 0 0 0 0 0 0 0 0 0 0 0 0 0 0 0 0 0 0 0 0 0 0 0 0 0 0 0 0 0 0 0 0 0 0 0 0 0 0 3 3 0 0 0
0 0 0 0 0 0 0 0 0 0 0 0 0 0 0 0 0 0 0 0 0 0 0 0 0 0 0 0 0 0 0 0 0 0 0 0 0 0 0 3 3 0 0 0
0 0 0 0 0 0 0 0 0 0 0 0 0 0 0 0 0 0 0 0 0 0 0 0 0 0 0 0 0 0 0 0 0 0 0 0 0 0 0 0 0 0 0 0
0 0 0 0 0 0 0 0 0 0 0 0 0 0 0 0 0 0 0 0 0 0 0 0 0 0 0 0 0 0 0 0 0 0 0 0 0 0 0 0 0 0 0 0
0 0 0 0 0 0 0 0 0 0 0 0 0 0 0 0 0 0 0 0 0 0 0 0 0 0 0 0 0 0 0 0 0 0 0 0 0 0 0 0 0 0 0 0
0 0 0 0 0 0 0 0 0 0 0 0 0 0 0 0 0 0 0 0 0 0 0 0 0 0 0 0 0 0 0 0 0 0 0 0 0 0 0 0 0 0 0 0
0 0 0 0 0 0 0 0 0 0 0 0 0 0 0 0 0 0 0 0 0 0 0 0 0 0 0 0 0 0 0 0 0 0 0 0 0 0 0 0 0 0 0 0
0 0 0 0 0 0 0 0 0 0 0 0 0 0 0 0 0 0 0 0 0 0 0 0 0 0 0 0 0 0 0 0 0 0 0 0 0 0 0 0 0 0 0 0
0 0 0 0 0 0 0 0 0 0 0 0 0 0 0 0 0 0 0 0 0 0 0 0 0 0 0 0 0 0 0 0 0 0 0 0 0 0 0 0 0 0 0 0
0 0 0 0 0 0 0 0 0 0 0 0 0 0 0 0 0 0 0 0 0 0 0 0 0 0 0 0 0 0 0 0 0 0 0 0 0 0 0 0 0 0 0 0
0 0 0 0 0 0 0 0 0 0 0 0 0 0 0 0 0 0 0 0 0 0 0 0 0 0 0 0 0 0 0 0 0 0 0 0 0 0 0 0 0 0 0 0
0 0 0 0 0 0 0 0 0 0 0 0 0 0 0 0 0 0 0 0 0 0 0 0 0 0 0 0 0 0 0 0 0 0 0 0 0 0 0 0 0 0 0 0
0 0 0 0 0 0 0 0 0 0 0 0 0 0 0 0 0 0 0 0 0 0 0 0 0 0 0 0 0 0 0 0 0 0 0 0 0 0 0 0 0 0 0 0
0 0 0 0 0 0 0 0 0 0 0 0 0 0 0 0 0 0 0 0 0 0 0 0 0 0 0 0 0 0 0 0 0 0 0 0 0 0 0 0 0 0 0 0
0 0 0 0 0 0 0 0 0 0 0 0 0 0 0 0 0 0 0 0 0 0 0 0 0 0 0 0 0 0 0 0 0 0 0 0 0 0 0 0 0 0 0 0
0 0 0 0 0 0 0 0 0 0 0 0 0 0 0 0 0 0 0 0 0 0 0 0 0 0 0 0 0 0 0 0 0 0 0 0 0 0 0 0 0 0 0 0
0 0 0 0 0 0 0 0 0 0 0 0 0 0 0 0 0 0 0 0 0 0 0 0 0 0 0 0 0 0 0 0 0 0 0 0 0 0 0 0 0 0 0 0
Height
5606 5606 5605 5605 5606 5608 5610 5614 5618 5624 5629 5635 5641 5647 5654 5661 5668 5676 5684 5692 5700 5708 5715 5721 5727 5734 5740 5746 5752 5758 5764 5769 5774 5778 5782 5786 5791 5794 5798 5801 5804 5806 5809 5811
5608 5607 5606 5606 5607 5609 5612 5615 5619 5624 5629 5635 5640 5646 5652 5659 5666 5672 5680 5688 5696 5703 5709 5716 5722 5728 5735 5740 5745 5751 5756 5762 5767 5771 5775 5779 5783 5786 5789 5792 5795 5798 5801 5803
5609 5608 5607 5607 5608 5610 5613 5616 5620 5624 5629 5634 5640 5645 5650 5657 5663 5669 5676 5683 5690 5698 5705 5711 5717 5722 5729 5734 5739 5744 5749 5754 5759 5763 5767 5770 5773 5777 5780 5784 5787 5790 5792 5794
5610 5608 5608 5608 5610 5611 5613 5616 5620 5624 5629 5634 5640 5644 5649 5654 5660 5667 5673 5679 5686 5693 5700 5706 5711 5717 5723 5728 5732 5737 5742 5747 5751 5755 5759 5762 5766 5769 5773 5776 5778 5781 5782 5785
5611 5610 5610 5610 5611 5612 5614 5617 5621 5625 5629 5633 5638 5643 5649 5652 5658 5664 5670 5676 5682 5688 5694 5700 5706 5712 5717 5721 5726 5730 5734 5738 5742 5746 5750 5753 5757 5761 5764 5766 5769 5771 5773 5775
5613 5611 5611 5611 5612 5614 5615 5618 5621 5625 5628 5633 5637 5642 5647 5650 5655 5661 5666 5671 5677 5683 5688 5694 5700 5705 5710 5715 5719 5723 5727 5730 5733 5737 5741 5745 5748 5751 5754 5757 5759 5762 5764 5767
5614 5613 5612 5613 5613 5615 5617 5621 5623 5626 5629 5633 5636 5640 5645 5649 5653 5658 5663 5668 5674 5679 5683 5689 5694 5699 5703 5708 5712 5716 5719 5723 5724 5728 5732 5735 5738 5741 5744 5747 5750 5752 5754 5757
5616 5615 5615 5615 5616 5617 5619 5623 5626 5627 5629 5632 5636 5639 5644 5646 5650 5655 5659 5664 5669 5674 5678 5683 5688 5692 5696 5700 5704 5707 5710 5714 5716 5719 5722 5725 5728 5731 5734 5737 5739 5742 5745 5747
5619 5618 5618 5618 5619 5620 5622 5624 5626 5629 5630 5633 5636 5639 5642 5645 5648 5652 5656 5660 5665 5669 5673 5677 5680 5685 5689 5692 5696 5699 5702 5704 5707 5709 5712 5715 5718 5721 5723 5726 5729 5732 5734 5737
5623 5622 5621 5621 5622 5623 5625 5626 5628 5630 5631 5633 5636 5638 5641 5643 5646 5649 5653 5656 5660 5664 5667 5670 5674 5677 5680 5684 5687 5689 5692 5694 5696 5699 5701 5704 5707 5710 5713 5715 5718 5720 5723 5725
5626 5626 5625 5625 5625 5625 5627 5628 5629 5631 5632 5634 5636 5640 5640 5642 5644 5647 5650 5652 5655 5658 5661 5663 5666 5669 5671 5674 5677 5679 5682 5683 5685 5687 5690 5692 5695 5698 5701 5704 5707 5709 5712 5714
5629 5629 5628 5628 5628 5627 5628 5629 5630 5632 5633 5634 5636 5641 5639 5640 5642 5644 5646 5648 5650 5652 5654 5656 5658 5660 5663 5665 5667 5669 5672 5673 5675 5676 5679 5681 5684 5687 5690 5693 5695 5698 5701 5703
5631 5631 5631 5631 5632 5631 5630 5630 5631 5632 5633 5634 5635 5640 5637 5638 5638 5640 5641 5643 5644 5646 5648 5649 5651 5652 5654 5656 5658 5660 5661 5662 5664 5666 5668 5671 5674 5676 5678 5681 5684 5687 5689 5692
5632 5632 5633 5633 5632 5632 5632 5632 5632 5633 5633 5634 5635 5636 5636 5635 5635 5636 5637 5638 5639 5640 5641 5642 5643 5644 5646 5647 5648 5649 5650 5651 5652 5655 5657 5660 5663 5665 5667 5669 5672 5674 5677 5679
5632 5633 5632 5632 5632 5632 5633 5633 5632 5633 5633 5633 5634 5633 5633 5632 5632 5632 5632 5632 5632 5633 5634 5634 5635 5636 5636 5637 5637 5638 5639 5640 5641 5643 5645 5648 5650 5653 5655 5657 5660 5662 5664 5667
5632 5632 5633 5633 5632 5632 5632 5632 5632 5632 5632 5632 5631 5631 5630 5629 5628 5628 5626 5626 5626 5625 5626 5626 5626 5626 5626 5626 5626 5626 5627 5628 5629 5631 5633 5635 5637 5640 5642 5645 5647 5650 5652 5655
5631 5632 5632 5632 5632 5632 5632 5632 5631 5631 5631 5630 5629 5629 5627 5626 5624 5623 5621 5620 5619 5618 5618 5618 5617 5617 5616 5615 5615 5615 5616 5617 5618 5619 5621 5623 5625 5627 5629 5632 5635 5638 5641 5643
5631 5630 5630 5631 5632 5631 5633 5630 5629 5629 5629 5628 5626 5625 5624 5622 5620 5618 5615 5613 5612 5611 5610 5609 5608 5608 5606 5605 5605 5605 5605 5606 5606 5608 5609 5611 5613 5615 5618 5620 5623 5626 5629 5631
5630 5630 5629 5629 5629 5629 5630 5628 5627 5627 5626 5624 5623 5621 5619 5617 5615 5613 5609 5607 5605 5604 5602 5600 5599 5598 5596 5595 5595 5595 5595 5595 5595 5596 5597 5599 5601 5604 5606 5609 5612 5615 5618 5620
5629 5629 5629 5627 5627 5627 5628 5625 5623 5624 5622 5620 5618 5616 5614 5612 5609 5607 5603 5600 5598 5596 5594 5592 5590 5588 5587 5586 5585 5584 5584 5584 5585 5585 5587 5588 5590 5593 5595 5598 5601 5603 5606 5608
5628 5627 5626 5625 5624 5624 5623 5621 5620 5620 5619 5615 5613 5611 5608 5605 5603 5600 5596 5593 5590 5587 5585 5583 5581 5579 5577 5576 5575 5574 5574 5574 5575 5575 5576 5578 5580 5582 5584 5587 5590 5593 5595 5597
5626 5625 5624 5622 5621 5623 5619 5617 5616 5615 5611 5609 5607 5604 5601 5598 5595 5592 5588 5585 5582 5579 5577 5574 5572 5570 5568 5567 5565 5565 5564 5564 5565 5566 5567 5568 5570 5572 5575 5577 5580 5582 5584 5586
5624 5624 5621 5621 5621 5617 5614 5612 5610 5608 5605 5603 5600 5597 5594 5591 5588 5584 5581 5577 5574 5571 5568 5565 5563 5561 5559 5557 5556 5556 5555 5556 5556 5557 5558 5559 5561 5563 5565 5567 5570 5572 5574 5575
5622 5620 5619 5617 5615 5612 5610 5607 5604 5602 5599 5596 5593 5590 5586 5583 5579 5575 5571 5568 5565 5562 5559 5556 5554 5552 5550 5548 5547 5546 5546 5547 5547 5548 5548 5550 5552 5554 5556 5557 5560 5561 5563 5565
5619 5617 5615 5613 5611 5608 5605 5602 5599 5595 5592 5588 5585 5581 5578 5574 5570 5566 5562 5558 5555 5552 5549 5546 5544 5542 5540 5538 5537 5537 5537 5537 5538 5538 5539 5541 5542 5544 5546 5548 5549 5551 5553 5555
5615 5613 5611 5609 5606 5603 5600 5596 5592 5589 5585 5581 5577 5573 5569 5564 5560 5556 5552 5548 5545 5541 5538 5536 5534 5532 5530 5529 5528 5527 5527 5528 5528 5529 5530 5532 5533 5535 5536 5538 5540 5541 5543 5544
Wind_Speed
5 2 2 6 7 8 12 17 21 23 28 29 29 31 35 39 42 45 45 48 51 51 51 50 48 49 47 47 46 46 46 45 43 42 42 42 41 40 39 39 38 37 36 36
6 3 1 3 6 7 12 16 19 20 24 26 27 29 32 35 40 43 44 44 48 49 48 49 48 48 47 46 45 44 45 45 45 44 45 44 43 43 42 42 41 40 39 39
7 4 0 3 5 6 10 14 18 20 21 23 25 26 30 33 37 40 42 42 45 47 47 48 48 47 46 45 45 44 44 44 45 44 45 46 46 45 45 45 44 42 42 40
7 5 2 2 5 6 8 12 15 18 19 21 23 24 27 31 35 37 39 41 43 45 45 46 47 47 46 46 45 45 45 45 46 46 45 46 46 46 45 45 45 44 43 42
7 5 3 4 5 6 7 10 13 16 17 19 21 22 25 29 33 35 36 39 41 42 43 43 45 45 45 45 45 45 45 45 46 47 46 47 47 46 46 46 46 45 45 44
7 5 4 4 5 6 7 9 11 12 14 17 18 19 23 26 29 33 36 38 40 40 41 42 43 43 43 44 44 44 45 43 44 45 47 47 48 48 47 46 45 44 43 43
9 7 5 5 5 6 7 7 8 9 11 13 15 16 18 23 28 31 34 38 40 40 42 45 45 44 44 43 44 44 45 44 42 43 44 45 45 46 47 47 45 44 44 44
11 9 7 6 5 6 7 7 7 7 8 11 12 12 14 18 24 28 32 36 38 38 40 44 45 46 46 46 46 46 46 47 46 45 44 44 45 45 45 46 44 45 46 44
12 11 9 8 7 6 6 7 7 6 6 8 9 10 11 14 19 24 28 32 36 37 38 42 44 46 46 47 46 45 46 47 46 47 46 46 47 47 47 46 46 46 45 44
13 12 11 10 9 7 6 5 5 5 5 4 6 7 9 12 16 20 23 26 31 35 37 38 41 43 45 46 46 46 46 46 46 46 47 47 47 46 46 47 47 47 45 44
12 12 11 10 8 6 5 4 4 3 4 4 5 6 8 10 13 16 20 24 27 30 34 37 39 41 43 44 45 45 45 45 46 47 47 47 47 46 47 48 48 47 47 47
9 10 10 9 7 6 5 4 3 2 2 4 5 6 9 10 12 14 17 21 24 27 29 33 36 38 41 42 43 44 45 46 46 46 47 48 47 47 48 49 48 48 48 48
6 7 7 7 6 6 4 3 2 0 0 2 4 6 9 10 12 14 16 20 23 26 28 30 32 35 38 41 43 45 47 48 48 47 47 48 47 47 48 49 50 50 50 49
3 4 4 4 4 5 4 3 2 2 2 3 4 6 9 11 13 15 17 20 23 25 28 30 31 33 36 39 41 44 45 47 48 48 49 49 49 49 49 49 50 51 50 50
1 2 2 3 3 4 3 3 4 4 5 6 7 9 10 13 15 17 19 20 23 25 28 30 31 34 36 38 40 43 44 45 47 48 49 49 49 50 50 49 49 50 50 50
3 3 4 4 5 5 5 6 6 7 8 8 9 11 12 14 15 18 21 22 23 25 27 30 31 33 35 38 40 42 43 44 45 47 47 47 48 48 48 48 48 49 49 49
4 5 5 6 6 7 7 8 9 9 10 11 12 13 14 16 18 19 22 24 26 27 28 30 32 34 35 37 39 40 42 43 44 45 46 46 46 47 48 48 48 48 48 47
4 5 6 7 8 8 9 10 11 11 12 14 15 16 17 18 19 20 22 24 25 27 29 31 33 34 35 36 37 39 39 41 42 43 44 45 45 46 47 47 47 47 47 46
5 6 7 8 9 9 10 12 13 13 14 16 17 18 20 20 21 22 23 25 26 28 30 32 34 34 35 35 36 37 38 39 41 42 43 44 44 44 44 45 45 45 45 46
6 6 8 9 10 11 12 14 15 16 16 18 19 21 22 23 24 24 25 26 27 29 31 32 33 34 34 35 35 36 36 38 39 40 41 41 42 41 41 42 43 43 43 43
6 7 8 10 12 12 15 16 17 18 20 21 22 23 24 25 26 26 27 27 28 29 30 31 31 32 33 34 34 34 35 36 37 37 38 39 39 39 39 40 40 41 41 41
7 8 9 11 12 14 16 18 19 20 22 23 24 25 26 27 28 28 29 29 28 28 29 29 30 32 32 32 33 33 32 33 34 35 36 37 37 37 38 38 38 39 40 40
9 10 11 12 13 15 17 18 20 21 23 24 25 26 27 29 29 30 31 30 30 29 29 30 31 31 32 32 32 32 32 31 32 33 34 34 35 35 36 37 37 37 37 38
11 12 13 14 15 17 19 20 22 23 24 25 26 28 29 30 30 31 31 32 31 30 31 31 31 32 32 32 31 32 32 32 32 32 33 33 34 35 35 36 36 37 37 37
13 14 15 17 18 20 21 23 24 25 26 27 28 30 30 31 32 32 32 32 32 32 32 31 31 31 30 31 31 31 31 31 32 32 32 33 34 33 34 35 36 36 36 36
16 17 18 19 21 22 23 25 26 28 29 30 30 32 33 33 33 33 33 33 33 33 33 32 31 31 30 30 31 31 31 31 31 32 32 33 33 34 34 35 35 36 36 36
Wind_Direction
12 334 244 214 208 204 204 201 199 201 202 206 208 206 207 211 210 209 210 210 210 213 215 217 217 218 219 221 223 224 225 226 228 229 231 232 234 236 237 239 241 243 245 247
21 0 248 205 204 202 200 200 200 199 201 206 209 208 206 211 213 212 211 211 212 214 216 219 222 223 220 221 224 226 227 227 229 231 232 233 234 236 237 239 242 244 246 248
27 31 24 201 199 193 194 199 202 202 203 204 205 208 210 212 213 212 213 213 213 215 218 220 223 226 226 226 228 229 228 229 229 233 233 233 234 237 239 241 241 243 246 249
34 40 57 156 181 186 194 195 199 203 206 208 210 212 215 215 216 215 215 215 215 218 221 224 225 228 230 231 232 233 233 233 231 232 233 234 236 239 241 243 243 244 247 249
35 47 72 129 155 178 186 200 202 206 208 210 214 216 214 217 220 218 218 218 217 219 220 222 225 228 231 233 235 236 237 237 236 235 236 238 239 240 241 243 244 244 245 248
36 52 82 125 141 159 176 189 200 206 208 212 213 217 215 218 220 220 221 221 221 221 223 225 227 230 233 235 236 237 239 240 240 239 239 241 243 243 244 246 247 246 247 249
43 56 86 114 138 147 157 169 182 193 201 210 215 220 219 219 222 223 224 225 226 226 227 229 231 232 234 235 237 239 241 241 242 241 242 243 245 244 245 246 247 248 250 251
49 64 82 96 118 141 152 159 168 177 188 199 209 218 219 222 223 226 227 227 228 228 229 230 232 234 236 237 239 242 244 244 245 245 246 245 246 247 248 247 248 249 250 253
52 68 79 87 105 126 140 151 156 165 179 188 201 210 217 224 227 229 230 231 232 233 235 235 236 237 237 240 242 244 246 246 247 247 248 249 249 249 251 251 252 252 254 256
58 69 77 86 94 107 118 133 150 168 181 198 200 211 224 230 235 235 237 238 237 237 240 240 239 240 240 241 243 245 247 247 248 249 251 251 252 252 252 252 253 255 257 259
58 66 72 79 89 93 99 122 149 174 201 224 222 229 231 234 235 237 240 243 242 244 245 245 245 246 246 247 248 249 250 251 252 252 253 254 254 255 255 256 257 258 259 261
56 62 64 69 71 75 92 109 130 164 202 234 246 244 241 243 244 243 243 245 247 249 251 250 250 250 251 251 251 252 252 253 254 255 256 257 258 258 258 259 259 260 261 262
55 54 58 60 54 55 68 81 91 99 214 246 257 259 252 256 256 252 251 249 249 251 253 253 253 252 252 253 254 255 255 256 256 256 255 256 257 259 260 260 261 261 262 263
41 39 39 33 31 33 40 35 6 328 305 294 286 277 272 268 267 262 258 255 252 252 252 254 254 255 255 256 257 257 258 258 257 256 257 257 258 259 261 262 262 261 261 263
329 342 345 339 339 347 351 337 325 309 303 304 299 291 285 280 273 270 266 264 260 256 254 255 257 258 258 258 259 259 259 258 257 257 258 257 258 259 260 261 262 262 261 263
294 301 308 311 315 320 317 310 302 302 301 303 304 302 295 291 282 276 273 270 267 262 260 261 262 262 262 261 260 259 258 258 258 258 258 257 257 258 259 260 260 261 261 262
300 293 295 300 308 310 312 309 302 298 298 300 300 300 298 295 288 284 279 275 272 269 266 266 266 266 265 264 262 261 260 258 257 257 257 257 257 257 258 258 258 259 260 261
325 307 299 300 301 303 304 302 301 299 299 299 299 298 296 297 295 290 284 279 275 273 271 269 268 267 266 266 264 263 261 259 257 257 257 256 256 257 257 256 257 258 258 259
330 316 308 303 299 300 301 300 298 297 298 297 297 297 296 297 296 293 287 283 280 278 276 274 272 270 269 267 265 264 263 261 259 259 258 257 256 257 257 256 256 257 258 259
335 320 312 306 304 302 299 299 299 297 298 298 297 296 296 297 297 296 292 289 285 282 280 278 276 273 271 269 267 266 265 264 262 261 260 258 257 257 256 256 256 257 258 259
334 322 314 309 306 305 301 299 299 299 299 299 299 299 297 297 298 298 296 293 289 286 283 280 278 275 274 272 270 268 267 265 263 261 259 258 258 257 256 257 257 258 259 260
330 322 316 313 310 308 306 304 302 300 300 300 300 300 299 298 298 297 296 295 292 289 287 284 281 278 275 273 271 269 268 265 262 261 259 258 256 256 256 258 259 260 260 260
328 326 322 320 318 314 311 309 306 304 303 302 302 301 301 300 299 296 295 293 291 290 288 286 283 280 276 273 271 269 267 264 263 262 260 258 257 257 257 258 259 260 260 261
320 320 321 321 320 318 317 315 311 308 305 304 303 303 303 302 301 299 295 293 291 289 287 285 283 281 278 273 271 269 265 263 263 262 260 258 258 257 258 259 260 260 260 261
315 316 318 319 319 319 319 318 316 313 310 307 304 304 304 304 303 301 297 294 292 290 288 286 283 281 278 275 272 270 267 265 264 261 259 258 259 259 259 259 260 260 260 260
315 315 315 316 317 318 319 319 317 315 313 311 308 305 305 305 304 302 298 296 294 292 288 285 282 280 277 276 274 270 267 266 264 261 259 258 258 258 258 259 260 260 259 259